STARLINK-34041

Last updated on Thu Jun 05 2025 00:02:04 GMT+0000 (Coordinated Universal Time)

1 63844U 25093J 25154.66668981 .00104807 00000+0 24866-2 0 9998 2 63844 42.9992 215.8048 0001597 267.3549 127.9688 15.40642897 5358
UTC large
Height (km)
Speed (km/s)
/
Latitude / Longitude
Inclination (degrees)
Orbital Period (minutes)
Azimuth
Elevation
Range (km)
Doppler Factor

Next 0 passes for location: London (51.5072 / 0.1276)

Sorry there are no passes over London.